Temp
94 95 95 97 95 92 88 87 86 85 85 85 84 84 84 86 87 89 89 86 87 87 86 83 76 82 79 82 84 83 83 81 83 79 79 79 83 85 84 83 84 84 83
94 93 94 95 95 90 88 85 85 85 85 85 84 85 85 88 87 88 88 87 87 85 85 84 82 83 81 82 83 82 78 80 81 77 75 72 76 81 85 82 83 83 83
93 92 92 94 94 89 87 85 85 85 84 85 86 85 86 86 85 86 87 87 87 86 84 84 84 83 81 80 82 82 81 77 80 82 77 71 70 75 79 81 81 82 79
95 94 93 92 93 91 90 86 85 85 85 85 85 83 83 83 85 85 86 86 86 87 87 85 84 84 81 80 80 84 82 80 77 79 82 80 77 71 71 77 78 81 83
97 94 94 93 95 93 91 88 85 84 84 84 84 84 82 86 87 87 85 84 84 86 88 85 85 84 84 81 80 83 82 82 80 78 78 79 78 79 74 71 74 78 79
98 96 95 94 94 95 92 89 84 83 84 83 83 83 82 83 85 84 85 86 86 86 86 87 84 84 83 82 81 82 83 81 81 81 80 77 76 76 75 73 74 74 77
99 96 93 93 92 92 90 89 84 81 83 83 83 82 83 82 83 83 85 85 86 87 84 85 83 83 83 83 83 82 82 82 81 81 79 80 80 81 79 76 74 74 76
102 99 95 94 92 92 90 88 85 82 83 84 82 82 83 85 85 86 88 87 88 87 86 85 85 85 84 84 84 83 83 82 81 81 79 78 80 82 80 78 75 72 74
102 99 98 96 93 92 90 88 85 83 84 84 83 82 82 84 84 84 86 88 86 91 88 85 85 84 85 84 83 84 82 83 81 80 80 79 79 81 81 80 78 75 70
101 101 99 97 95 95 93 91 88 84 84 85 85 85 83 84 85 85 84 85 87 86 89 85 85 85 85 85 83 83 83 81 83 82 79 78 78 79 81 80 79 78 75
101 102 101 100 97 97 95 93 90 87 86 85 85 85 85 84 84 85 85 86 86 87 86 86 85 84 84 84 83 82 83 82 81 82 80 78 78 79 79 80 79 77 77
101 103 102 101 99 96 96 94 93 91 88 87 85 85 85 85 85 84 85 86 86 86 86 86 85 85 84 84 83 82 84 82 81 81 81 79 81 77 78 79 77 77 78
101 102 103 101 99 98 96 96 94 94 93 88 88 87 86 85 85 84 85 86 85 86 87 87 85 84 85 83 84 83 83 83 83 82 80 80 79 77 78 77 78 77 78
98 100 101 99 100 98 95 95 96 97 95 93 90 86 86 86 86 86 85 85 86 84 86 86 85 86 85 85 85 84 83 83 84 83 82 81 80 78 77 77 75 77 76
99 99 100 95 95 95 94 95 97 95 97 92 90 88 87 87 86 85 85 85 85 86 85 85 86 85 86 88 84 84 83 83 82 83 84 83 81 77 77 79 77 75 75
97 99 100 100 99 97 95 95 95 97 96 91 91 89 87 86 86 85 85 85 85 85 85 84 85 85 88 79 75 82 84 83 82 81 83 83 78 76 73 72 74 76 74
96 97 99 99 98 99 97 95 94 96 94 91 91 90 87 86 85 86 85 84 84 85 84 84 85 84 85 74 72 74 86 84 83 82 82 84 87 78 79 71 72 70 71
96 97 100 98 97 103 104 99 98 92 91 90 89 90 88 86 86 85 85 84 85 84 84 84 84 84 85 72 68 71 83 84 84 83 83 82 83 82 80 78 76 76 75
96 97 101 100 96 98 98 96 95 92 91 90 88 89 89 87 86 85 84 85 85 84 85 85 84 83 84 68 66 68 82 83 83 84 84 83 82 77 69 78 75 75 76
92 92 94 96 100 101 102 99 95 93 89 90 89 90 88 87 86 86 84 85 85 85 86 85 85 80 84 70 63 67 84 82 84 83 83 72 81 70 64 78 77 74 75
91 93 92 90 93 93 94 91 95 92 93 92 92 89 88 87 86 86 85 85 85 85 84 84 85 85 83 83 62 60 82 84 84 84 84 85 66 64 60 68 79 77 77
90 93 92 91 94 95 92 88 89 93 94 92 89 88 88 89 90 85 85 85 84 82 82 82 83 86 85 70 66 59 62 76 83 83 86 85 65 60 58 63 71 62 68
90 91 90 90 93 93 91 88 88 92 93 92 88 88 88 87 86 85 84 84 83 83 82 83 83 84 86 87 64 59 59 61 74 85 80 61 58 58 59 60 64 61 74
85 86 86 88 86 87 88 89 90 92 92 91 88 88 87 85 86 88 87 86 85 84 83 84 84 85 86 87 88 79 68 62 67 72 77 75 72 64 68 66 64 73 74
79 81 83 86 83 83 83 85 85 86 88 89 88 87 88 85 86 86 87 86 86 84 87 86 86 85 85 72 57 61 75 78 73 75 80 78 76 77 70 72 70 72 74
78 78 80 83 79 79 79 82 84 85 85 86 87 88 89 88 87 86 85 69 63 56 49 50 63 74 55 48 46 47 50 51 54 70 76 74 74 71 72 71 69 70 71
MSLP
1003.24 1004.41 1005.46 1006.38 1007.36 1008.48 1009.65 1010.60 1011.44 1012.12 1013.04 1013.71 1014.26 1014.46 1014.58 1014.56 1014.80 1014.54 1014.75 1015.31 1015.66 1016.12 1016.51 1016.85 1017.15 1017.28 1017.54 1017.73 1017.77 1017.97 1018.03 1018.05 1018.00 1018.22 1018.57 1018.79 1018.68 1018.45 1018.40 1018.58 1018.69 1019.05 1019.44
1002.16 1003.40 1004.66 1005.59 1006.57 1007.81 1009.05 1010.15 1011.03 1011.83 1012.49 1013.17 1013.81 1014.09 1014.12 1014.18 1014.48 1014.49 1014.57 1014.96 1015.39 1015.86 1016.34 1016.50 1016.87 1017.06 1017.27 1017.74 1017.93 1018.17 1018.34 1018.19 1018.17 1018.56 1018.69 1019.03 1019.14 1018.71 1018.62 1018.82 1019.14 1019.17 1019.28
1000.71 1002.36 1003.59 1004.61 1005.82 1007.07 1008.21 1009.39 1010.41 1011.23 1012.04 1012.64 1013.30 1013.69 1013.82 1013.96 1014.17 1014.33 1014.52 1014.69 1015.07 1015.52 1016.05 1016.43 1016.48 1016.85 1017.23 1017.69 1017.88 1018.04 1018.21 1018.39 1018.15 1018.37 1018.74 1018.95 1019.10 1018.97 1019.04 1019.08 1019.22 1019.31 1019.51
999.54 1001.50 1002.93 1004.02 1004.89 1006.14 1007.48 1008.73 1009.74 1010.69 1011.64 1012.19 1012.66 1013.07 1013.29 1013.45 1013.55 1013.90 1014.16 1014.46 1014.77 1015.16 1015.39 1015.89 1016.23 1016.54 1016.81 1017.41 1017.68 1017.66 1017.87 1018.09 1018.19 1018.22 1018.45 1018.78 1019.08 1019.23 1019.49 1019.31 1019.32 1019.43 1019.55
997.92 1000.18 1001.80 1003.19 1004.22 1005.53 1006.76 1007.95 1009.13 1010.15 1011.06 1011.84 1012.17 1012.63 1013.00 1013.04 1013.25 1013.42 1013.72 1013.99 1014.47 1014.70 1015.04 1015.50 1015.83 1016.34 1016.71 1017.12 1017.43 1017.60 1017.72 1017.83 1018.08 1018.11 1018.29 1018.58 1018.87 1019.01 1019.24 1019.40 1019.50 1019.39 1019.39
996.75 998.79 1000.83 1002.58 1003.81 1004.88 1006.19 1007.42 1008.64 1009.68 1010.51 1011.30 1011.76 1012.09 1012.42 1012.70 1012.82 1013.06 1013.26 1013.58 1013.99 1014.49 1014.63 1014.88 1015.48 1015.89 1016.45 1016.81 1017.14 1017.33 1017.52 1017.71 1017.87 1017.93 1017.97 1018.35 1018.68 1018.68 1018.85 1019.17 1019.11 1019.27 1019.26
995.85 997.63 999.66 1001.13 1002.68 1003.75 1005.00 1006.43 1007.69 1008.77 1009.67 1010.43 1011.07 1011.57 1011.79 1012.37 1012.36 1012.37 1012.68 1012.86 1013.31 1013.63 1014.10 1014.51 1015.07 1015.64 1015.94 1016.16 1016.49 1017.01 1017.22 1017.49 1017.78 1017.85 1018.11 1018.04 1018.16 1018.00 1018.20 1018.37 1018.82 1018.94 1019.04
994.52 996.29 998.19 999.88 1001.41 1002.79 1003.98 1005.19 1006.53 1007.54 1008.54 1009.39 1010.27 1010.89 1011.42 1011.66 1011.93 1011.92 1011.96 1012.28 1012.45 1012.90 1013.13 1013.80 1014.27 1014.73 1015.24 1015.72 1015.98 1016.64 1017.05 1017.30 1017.60 1017.74 1018.02 1018.21 1017.90 1017.71 1017.90 1018.21 1018.50 1018.76 1018.80
993.25 994.97 996.75 998.75 1000.29 1001.71 1002.94 1004.00 1005.41 1006.68 1007.57 1008.51 1009.43 1010.15 1010.77 1010.86 1011.15 1011.50 1011.56 1011.80 1012.03 1012.06 1012.33 1013.04 1013.69 1014.29 1014.75 1015.17 1015.83 1016.16 1016.58 1016.79 1017.17 1017.53 1017.77 1017.91 1017.68 1017.42 1017.56 1017.79 1018.09 1018.41 1018.76
992.37 993.90 995.69 997.44 999.05 1000.24 1001.73 1003.18 1004.37 1005.56 1006.23 1007.26 1008.19 1008.93 1009.49 1010.03 1010.33 1010.76 1011.10 1011.29 1011.46 1011.73 1011.91 1012.48 1013.13 1013.79 1014.37 1014.89 1015.40 1015.63 1015.95 1016.30 1016.53 1016.87 1017.30 1017.49 1017.29 1017.24 1017.25 1017.53 1017.78 1018.03 1018.36
991.51 992.92 994.59 996.25 997.80 999.46 1000.77 1002.14 1003.45 1004.63 1005.71 1006.31 1006.89 1007.64 1008.51 1009.36 1009.78 1010.01 1010.39 1010.69 1011.11 1011.35 1011.54 1012.18 1012.75 1013.21 1013.62 1014.18 1014.62 1014.91 1015.11 1015.42 1015.84 1016.04 1016.50 1016.90 1016.93 1016.95 1016.94 1017.17 1017.50 1017.89 1018.09
991.05 992.08 993.53 995.16 996.92 998.36 999.63 1000.74 1002.17 1003.25 1004.23 1005.26 1006.16 1006.96 1007.60 1008.12 1008.69 1009.26 1009.52 1009.96 1010.38 1010.77 1011.15 1011.49 1011.93 1012.32 1012.80 1013.32 1013.84 1014.20 1014.45 1014.61 1014.93 1015.32 1015.66 1016.11 1016.59 1016.86 1016.91 1016.97 1017.24 1017.59 1017.66
990.70 991.64 992.80 994.25 995.66 996.97 998.23 999.41 1000.64 1001.70 1003.20 1004.57 1005.50 1006.17 1006.67 1007.09 1007.51 1008.19 1008.77 1009.16 1009.75 1010.11 1010.42 1010.64 1011.01 1011.63 1012.10 1012.54 1013.04 1013.61 1013.99 1014.19 1014.28 1014.69 1015.25 1015.59 1016.00 1016.47 1016.69 1016.78 1016.78 1016.93 1017.22
990.63 991.35 992.18 993.41 994.57 995.93 997.03 998.20 999.38 1000.57 1001.96 1003.18 1004.21 1005.00 1005.47 1006.13 1006.82 1007.38 1007.90 1008.45 1008.80 1009.15 1009.30 1009.74 1010.21 1010.60 1011.04 1011.48 1011.97 1012.53 1013.01 1013.33 1013.51 1013.84 1014.45 1014.89 1015.23 1015.76 1016.11 1016.28 1016.34 1016.36 1016.74
990.58 991.24 991.80 992.70 993.70 994.71 996.06 997.18 998.10 999.27 1000.30 1001.54 1002.59 1003.19 1004.21 1004.93 1005.73 1006.33 1006.88 1007.51 1007.87 1007.91 1008.44 1008.89 1009.18 1009.66 1010.05 1010.38 1010.89 1011.39 1011.83 1012.27 1012.64 1012.89 1013.19 1013.62 1014.02 1014.27 1014.62 1015.01 1015.32 1015.86 1016.33
991.42 991.87 992.39 993.02 993.67 994.38 995.18 996.21 997.17 997.95 999.05 1000.06 1000.70 1001.70 1002.75 1003.71 1004.47 1005.19 1005.70 1006.16 1006.52 1007.09 1007.59 1007.85 1008.29 1008.54 1008.77 1008.99 1009.51 1010.12 1010.60 1011.09 1011.64 1011.95 1012.24 1012.51 1012.79 1012.97 1013.38 1014.01 1014.64 1014.85 1015.33
992.29 992.55 992.84 993.31 993.80 994.24 994.85 995.52 996.34 997.10 997.96 998.84 999.61 1000.41 1001.40 1002.26 1003.02 1003.82 1004.49 1004.89 1005.49 1006.17 1006.46 1006.95 1007.29 1007.39 1007.55 1007.77 1008.26 1008.86 1009.45 1009.92 1010.20 1010.65 1010.98 1011.20 1011.24 1011.82 1012.50 1013.04 1013.47 1013.84 1014.13
992.87 993.02 993.11 993.33 993.50 993.77 994.36 995.05 995.81 996.77 997.41 998.12 998.79 999.47 1000.25 1001.06 1001.94 1002.72 1003.25 1003.99 1004.52 1004.82 1005.39 1005.81 1006.14 1006.54 1006.42 1006.78 1007.35 1007.97 1008.56 1008.78 1008.85 1009.13 1009.41 1009.62 1009.93 1010.42 1011.13 1011.87 1012.49 1012.60 1013.02
993.54 993.57 993.46 993.28 993.32 993.54 993.92 994.52 995.07 995.87 996.77 997.50 998.09 998.67 999.34 1000.07 1000.82 1001.39 1002.11 1002.92 1003.61 1004.04 1004.24 1004.65 1005.17 1005.34 1005.38 1005.99 1006.67 1007.60 1007.91 1007.77 1007.55 1007.62 1007.89 1008.34 1008.88 1009.22 1009.97 1010.59 1010.79 1011.31 1011.79
994.49 994.31 994.03 993.61 993.24 993.21 993.24 993.85 994.83 995.41 996.14 996.57 997.14 997.97 998.64 999.17 999.66 1000.36 1001.22 1002.02 1002.64 1003.10 1003.67 1003.74 1003.88 1004.20 1004.56 1005.19 1005.86 1006.72 1007.12 1006.91 1006.47 1006.90 1006.78 1006.94 1007.30 1008.11 1008.75 1009.37 1010.04 1010.61 1010.65
994.80 994.58 994.45 994.19 993.90 994.03 993.96 994.16 994.24 994.65 995.09 995.78 996.57 997.26 997.79 998.32 998.99 999.83 1000.57 1001.32 1001.95 1002.51 1002.84 1003.06 1003.26 1003.34 1003.61 1004.13 1004.89 1005.85 1005.97 1005.31 1005.82 1005.90 1005.68 1006.06 1006.60 1007.00 1007.42 1008.03 1008.59 1008.53 1009.74
995.00 994.62 994.36 994.29 993.99 993.96 994.30 994.56 994.64 994.65 994.93 995.08 995.79 996.55 997.21 997.88 998.52 999.29 1000.00 1000.67 1001.37 1001.89 1002.21 1002.48 1002.60 1002.56 1002.79 1003.20 1003.67 1004.52 1004.93 1004.98 1005.22 1004.73 1004.64 1004.94 1005.40 1006.24 1006.77 1007.51 1007.41 1008.01 1008.60
995.13 994.97 994.74 994.37 994.25 994.31 994.75 994.86 994.96 994.91 994.96 995.07 995.49 996.17 996.82 997.54 998.16 998.73 999.46 1000.12 1000.71 1001.17 1001.51 1001.81 1001.96 1001.98 1002.23 1002.27 1002.71 1003.43 1003.98 1004.09 1004.37 1003.85 1003.91 1004.53 1004.36 1004.67 1005.67 1005.96 1006.50 1007.17 1007.68
996.21 996.13 995.65 995.02 995.16 995.36 995.39 995.25 995.09 994.97 995.08 995.12 995.53 996.10 996.70 997.35 997.90 998.39 998.85 999.49 999.94 1000.53 1001.04 1001.26 1001.36 1001.58 1001.71 1001.78 1001.53 1001.82 1002.58 1002.68 1002.96 1002.90 1003.15 1003.39 1003.68 1004.39 1004.49 1004.70 1005.23 1005.25 1005.76
997.95 997.36 996.60 996.00 996.26 996.45 996.45 996.31 996.09 995.75 995.33 995.35 995.69 996.10 996.62 997.20 997.67 998.09 998.30 998.86 999.18 999.73 1000.36 1000.81 1001.01 1001.24 1001.54 1002.69 1003.14 1002.78 1002.35 1002.06 1001.78 1001.59 1001.88 1002.35 1002.80 1003.04 1003.62 1003.72 1003.84 1003.53 1003.83
998.89 998.38 997.73 997.22 997.43 997.55 997.52 997.02 996.68 996.28 995.73 995.72 995.89 996.06 996.33 996.73 997.33 997.58 998.10 998.30 999.27 1000.40 1001.09 1001.50 1001.64 1001.79 1002.80 1002.94 1002.72 1002.30 1001.76 1001.43 1001.14 1002.06 1001.65 1001.31 1001.30 1001.51 1001.63 1002.07 1002.69 1002.90 1002.82
Wind_Speed
22 21 20 19 19 18 18 16 14 11 12 10 10 8 8 6 5 3 5 8 6 6 4 1 5 4 4 3 3 2 1 1 2 3 3 3 2 3 1 3 5 7 6
24 23 22 21 20 20 19 18 15 12 12 9 9 8 7 6 6 4 5 8 7 6 6 5 4 5 4 4 3 2 1 1 2 0 1 3 1 3 5 4 4 4 5
25 23 25 23 21 21 20 19 18 15 14 13 8 6 5 4 6 6 5 6 7 8 6 6 5 3 5 3 4 3 4 0 1 2 1 3 2 3 2 0 3 1 4
23 22 22 22 23 20 20 20 18 16 15 13 11 10 8 8 6 6 6 7 9 8 9 9 6 5 4 6 4 4 2 3 4 1 2 4 2 2 0 2 4 2 4
25 25 24 23 21 20 20 19 19 17 15 15 10 11 11 8 8 6 7 8 10 10 9 10 7 6 3 6 7 3 4 2 1 3 3 2 2 2 2 2 2 2 3
25 26 24 22 19 19 20 18 19 17 16 16 17 12 14 10 9 8 8 8 8 8 8 8 8 6 5 6 5 5 5 4 2 2 1 4 3 3 3 2 3 5 3
22 24 26 23 22 22 23 20 22 20 20 19 19 17 13 15 9 10 9 9 9 9 11 10 9 8 7 5 7 5 5 5 3 1 3 1 3 1 2 1 3 3 2
23 25 27 23 24 22 23 23 23 23 22 20 19 17 14 11 12 9 9 8 8 9 11 13 11 11 11 9 7 7 6 6 5 4 4 3 4 2 2 1 0 1 2
22 26 25 24 23 22 23 24 23 22 22 22 18 18 17 15 14 12 9 8 8 6 8 15 13 12 10 11 8 6 9 5 7 7 5 4 5 4 4 3 2 2 1
21 23 24 24 23 24 22 22 22 23 25 23 20 18 20 17 14 14 11 12 9 10 4 15 14 13 12 10 11 8 7 9 6 6 8 6 5 5 4 3 3 2 2
22 21 23 23 24 21 21 22 21 22 21 22 22 21 18 19 18 14 15 12 12 7 11 10 14 13 13 12 11 11 10 11 11 8 8 11 8 5 4 4 3 3 3
20 20 22 22 22 23 22 23 22 21 22 20 19 20 19 19 20 19 17 16 12 14 10 10 11 12 14 13 14 14 13 11 13 13 10 12 8 6 5 3 6 4 3
15 19 21 20 22 23 22 23 23 23 20 19 19 19 20 20 20 19 19 17 17 14 16 13 13 14 14 15 15 14 14 13 11 13 13 10 11 9 7 5 4 5 3
10 17 18 20 20 21 21 20 22 21 20 20 20 20 20 19 18 17 18 19 17 18 17 17 15 16 16 16 16 16 15 16 14 12 13 13 12 11 10 8 9 5 6
8 8 13 16 18 17 19 18 20 21 21 21 22 22 20 19 18 18 17 17 19 19 18 17 17 17 16 15 17 17 17 17 16 14 13 15 17 19 17 12 10 9 5
5 4 4 3 5 10 14 19 18 18 19 19 21 21 19 19 19 18 18 18 20 19 18 19 18 19 15 19 21 20 17 17 17 16 14 14 18 20 21 18 14 13 12
1 3 2 5 5 6 8 13 15 13 14 18 18 18 18 19 20 19 19 20 19 18 19 19 19 20 20 20 22 23 17 16 17 17 16 15 15 18 17 19 20 15 17
5 4 7 7 7 10 13 9 12 12 12 10 11 14 15 18 18 19 19 18 17 19 18 18 19 19 18 18 20 22 21 18 19 19 20 19 18 17 19 18 18 19 14
7 7 9 9 8 10 11 15 14 15 14 15 13 12 13 15 17 19 20 17 16 17 17 17 18 20 20 17 18 16 18 20 21 19 20 20 20 18 21 19 21 19 17
10 9 12 11 6 1 5 6 13 12 15 16 15 13 14 15 17 17 17 15 14 15 13 16 18 19 19 16 18 18 13 18 17 18 19 21 22 19 21 22 18 17 17
9 7 7 9 5 6 7 7 3 8 14 14 12 12 13 15 14 12 13 13 13 13 15 16 15 17 17 17 16 20 17 18 14 15 15 15 20 20 22 28 19 20 13
11 9 6 6 7 3 4 6 6 4 4 8 12 11 11 11 10 11 10 12 12 13 13 13 13 12 14 16 15 20 24 18 16 17 13 14 17 21 20 21 24 14 15
6 8 9 6 5 3 5 4 5 4 4 4 7 8 9 10 9 11 11 9 11 11 11 11 11 10 9 10 17 19 22 25 18 16 16 3 12 23 20 26 22 18 13
9 9 12 7 7 6 6 3 4 2 3 3 5 5 7 8 9 7 10 10 10 10 10 9 9 9 9 9 10 9 12 21 17 19 15 15 12 12 12 15 17 18 16
14 12 10 4 5 5 5 5 5 6 2 2 4 4 5 7 7 7 7 9 10 7 8 9 8 8 6 4 3 2 3 7 13 15 13 13 12 15 10 11 15 17 17
10 10 8 4 7 7 5 5 3 4 5 6 5 6 7 7 7 7 7 8 3 12 15 13 8 5 11 9 9 11 11 8 10 6 11 13 13 14 14 15 14 15 19
Wind_Direction
183 173 188 182 173 167 166 174 173 172 165 178 187 211 215 192 218 241 157 166 172 181 198 180 125 251 163 94 134 145 257 88 321 81 110 95 191 269 119 106 76 113 171
179 178 185 182 184 172 169 173 180 178 175 177 186 208 199 199 193 218 177 164 173 172 193 211 219 184 134 159 190 214 305 143 227 255 111 151 234 238 80 81 75 5 117
176 181 180 187 184 174 174 175 179 178 179 181 187 198 206 219 185 201 192 180 178 195 191 192 246 167 130 185 201 198 226 176 175 122 286 63 197 113 92 134 116 194 117
173 177 180 189 182 181 176 174 177 177 181 192 189 193 206 202 199 191 194 181 190 211 197 183 196 220 192 160 214 210 209 169 203 120 263 90 119 94 157 220 140 181 146
173 175 182 188 188 180 175 172 176 180 181 192 211 192 198 207 211 192 199 190 186 199 226 175 189 181 198 171 197 219 193 240 183 180 170 137 184 161 112 190 162 201 178
174 172 177 180 192 181 177 175 174 183 185 191 207 209 195 214 203 207 197 188 178 194 204 193 181 175 199 176 181 202 174 223 315 243 197 149 195 183 197 213 198 189 205
177 169 173 179 184 184 177 179 176 183 188 193 201 209 202 207 226 195 212 189 193 188 195 200 170 184 195 207 186 184 214 192 225 214 295 286 225 189 212 36 181 166 179
179 172 173 177 181 188 182 180 181 184 187 194 197 205 218 198 217 228 198 220 199 197 182 192 184 186 185 204 205 179 207 185 195 207 204 284 288 233 166 219 320 217 204
181 172 170 177 179 183 185 184 183 188 189 192 194 200 205 211 208 224 221 198 222 211 184 183 188 187 192 190 206 203 189 207 186 194 194 211 252 226 188 187 229 188 266
177 170 173 176 178 185 184 187 185 189 189 190 196 199 199 204 210 204 223 218 206 224 211 179 187 186 191 192 198 200 213 195 195 198 189 203 233 256 180 201 188 206 214
173 172 171 178 181 179 182 188 191 188 193 196 197 200 200 202 207 213 203 218 218 212 219 184 186 189 191 197 202 208 203 201 201 198 192 197 212 235 204 183 204 202 185
172 171 171 177 175 180 184 189 190 195 197 196 199 202 201 203 205 210 213 204 211 212 223 199 192 190 194 199 206 208 217 209 204 204 205 191 201 223 247 232 191 197 207
190 175 168 178 180 183 186 188 192 197 192 196 200 204 208 207 209 205 212 210 206 217 209 212 204 199 200 201 205 210 213 228 219 210 204 208 192 200 220 218 216 188 190
204 171 176 178 183 186 187 189 190 193 194 191 199 206 209 211 210 210 208 211 213 208 217 214 204 206 206 206 207 207 214 216 228 214 206 206 204 200 199 216 216 213 186
164 152 187 175 184 180 182 189 192 189 191 197 196 205 206 206 211 207 210 210 212 218 212 215 217 210 210 210 208 209 210 215 219 225 208 206 202 202 201 202 208 204 207
112 139 136 128 134 167 173 183 192 191 191 195 202 202 200 203 205 210 208 209 212 215 217 215 215 217 215 209 202 206 212 212 217 220 224 214 204 204 199 201 199 198 195
331 328 181 173 186 191 174 177 188 191 192 197 201 203 198 202 203 204 209 211 212 211 218 219 218 220 221 211 201 200 213 213 215 216 216 219 217 204 205 202 201 210 203
248 271 242 226 245 199 204 191 178 190 202 201 203 197 196 199 200 203 209 212 211 214 215 218 221 226 227 214 204 200 214 219 219 218 217 217 220 209 201 200 207 214 212
288 286 266 264 221 195 208 195 197 186 192 207 212 205 196 198 198 205 206 209 213 214 217 220 221 226 231 213 203 192 216 225 226 220 220 218 220 216 196 201 206 212 216
359 345 338 346 288 263 248 156 190 184 196 207 210 207 208 204 207 204 206 208 213 219 218 224 225 228 234 220 202 193 220 231 231 229 230 218 218 208 188 202 207 213 215
317 315 321 312 340 355 350 336 260 200 198 202 204 202 206 212 207 204 201 206 212 219 220 229 228 233 232 234 200 191 219 231 234 236 233 230 212 207 193 200 209 215 196
315 301 274 278 290 326 304 286 276 285 304 180 189 193 205 203 202 201 199 203 210 219 227 227 234 237 236 229 212 195 213 231 237 242 240 236 208 206 201 196 213 174 179
312 353 324 325 307 92 351 319 297 282 259 203 169 183 185 192 209 192 199 204 211 220 221 226 238 240 237 245 216 197 205 222 233 240 242 4 225 198 199 201 197 177 195
14 342 320 302 68 33 356 318 354 325 224 205 160 172 178 188 198 213 194 205 210 215 225 236 232 233 234 238 233 217 211 222 218 236 241 236 234 195 237 202 200 200 205
355 341 327 9 52 32 11 12 6 336 241 186 162 173 194 183 194 209 224 199 213 225 222 217 227 243 259 67 313 335 345 240 228 223 229 229 230 235 223 219 217 210 206
314 314 319 353 44 35 12 338 6 332 312 175 181 187 204 181 202 194 214 234 147 85 85 74 51 42 69 360 353 334 318 301 226 206 234 231 224 221 224 219 219 216 213